GEFSNGP_con_probscp_150.txt.gz
Probability
0 0 0 0 1 0 0 0 0 0 0 0 0 0 0 0 0 0 0 0 0 0 0 2 4 4 3 2 3 4 4 4 4 4 4 3 2 1 0 0 0 0 0 0
0 0 0 1 1 1 0 0 0 0 0 0 0 0 0 0 0 0 0 0 0 0 0 2 4 5 4 4 5 5 6 5 4 4 4 3 1 0 0 0 0 0 0 0
0 0 0 1 1 1 1 1 1 1 1 0 0 0 0 0 0 0 0 0 0 0 0 1 3 5 5 6 7 7 7 6 6 5 3 1 0 0 0 0 0 0 0 0
0 0 1 1 0 1 2 2 2 2 1 0 0 0 0 0 0 0 0 0 0 0 0 0 1 3 5 7 9 9 7 6 5 4 2 1 0 0 0 0 0 0 0 0
0 1 1 1 0 0 1 1 1 1 1 0 0 0 0 0 0 0 0 0 0 0 0 0 1 3 5 7 9 9 8 6 4 2 1 0 0 0 0 0 0 0 0 0
0 1 1 1 0 0 0 0 0 0 0 0 0 0 0 0 0 0 0 0 0 0 0 0 1 5 6 7 7 8 6 4 2 1 0 0 0 0 0 0 0 0 0 0
0 0 0 0 0 0 0 0 0 0 0 0 0 0 0 0 0 0 0 0 0 0 0 0 1 4 5 4 4 4 3 2 1 0 0 0 0 0 0 0 0 0 0 0
0 0 0 0 0 0 0 0 0 0 0 0 0 0 0 0 0 0 0 0 0 0 0 0 1 2 2 1 1 1 1 1 0 0 0 0 0 0 0 0 0 0 0 0
0 0 0 0 0 0 0 0 0 0 0 0 0 0 0 0 0 0 0 0 0 0 0 0 0 0 0 0 0 0 0 0 0 0 0 0 0 0 0 0 0 0 0 0
0 0 0 0 0 0 0 0 0 0 0 0 0 0 0 0 0 0 0 0 0 0 0 0 0 0 0 0 0 0 0 0 0 0 0 0 0 0 0 0 0 0 0 1
0 0 0 0 0 0 0 0 0 0 0 0 0 0 0 0 0 0 0 0 0 0 0 0 0 0 1 1 0 0 0 0 0 0 0 0 0 0 0 0 0 0 0 1
0 0 0 0 0 0 0 0 0 0 0 0 0 0 0 0 0 0 0 0 0 0 0 0 0 1 2 2 1 0 0 0 0 0 0 0 0 0 0 0 0 0 0 1
0 0 0 0 0 0 0 0 0 0 0 0 0 0 0 0 0 0 0 0 0 0 0 0 0 1 2 2 1 0 0 1 1 0 0 1 1 1 0 0 0 0 0 0
0 0 0 0 0 0 0 0 0 0 0 0 0 0 0 0 0 0 0 0 0 0 0 0 0 0 1 1 1 0 0 0 1 1 1 1 2 1 0 0 0 0 0 0
0 0 0 0 0 0 0 0 0 0 0 0 0 0 0 0 0 0 0 0 0 0 0 0 0 0 0 0 0 0 0 0 1 2 1 1 1 1 0 0 0 0 0 0
0 0 0 0 0 0 0 0 0 0 0 0 0 0 0 0 0 0 0 0 0 0 0 0 1 1 0 0 0 0 0 0 0 1 1 0 0 0 0 0 0 0 0 0
0 0 0 0 0 0 0 0 0 0 0 0 0 0 0 0 0 0 0 0 0 0 0 0 0 1 1 1 0 0 0 0 0 0 0 0 0 0 0 0 0 0 0 0
0 0 0 0 0 0 0 0 0 0 0 0 0 0 0 0 0 0 0 0 0 0 0 0 0 1 2 1 0 0 0 0 0 0 0 0 0 0 0 0 0 0 0 0
0 0 0 0 0 0 0 0 0 0 0 0 0 0 0 0 0 0 0 0 0 0 0 0 0 0 1 1 0 0 0 0 0 0 0 0 0 0 0 0 0 0 0 0
0 0 0 0 0 0 0 0 0 0 0 0 0 0 0 0 0 0 0 0 0 0 0 0 0 0 0 0 0 0 0 0 0 0 0 0 0 0 0 0 0 0 0 0
0 0 0 0 0 0 0 0 0 0 0 0 0 0 0 0 0 0 0 0 0 0 0 0 0 0 0 0 0 0 0 0 0 0 0 0 0 0 0 0 0 0 0 0
0 0 0 0 0 0 0 0 0 0 0 0 0 0 0 0 0 0 0 0 0 0 0 0 0 0 0 0 0 0 0 0 0 0 0 0 0 0 0 0 0 0 0 0
0 0 0 0 0 0 0 0 0 0 0 0 0 0 0 0 0 0 0 0 0 0 0 0 0 0 0 0 0 0 0 0 0 0 0 0 0 0 0 0 0 0 0 0
0 0 0 0 0 0 0 0 0 0 0 0 0 0 0 0 0 0 0 0 0 0 0 0 0 0 0 0 0 0 0 0 0 0 0 0 0 0 0 0 0 0 0 0
0 0 0 0 0 0 0 0 0 0 0 0 0 0 0 0 0 0 0 0 0 0 0 0 0 0 0 0 0 0 0 0 0 0 0 0 0 0 0 0 0 0 0 0
0 0 0 0 0 0 0 0 0 0 0 0 0 0 0 0 0 0 0 0 0 0 0 0 0 0 0 0 0 0 0 0 0 0 0 0 0 0 0 0 0 0 0 0
0 0 0 0 0 0 0 0 0 0 0 0 0 0 0 0 0 0 0 0 0 0 0 0 0 0 0 0 0 0 0 0 0 0 0 0 0 0 0 0 0 0 0 0

GEFSNGP_con_probscp_156.txt.gz
Probability
0 0 0 0 0 0 0 0 0 0 1 1 1 0 0 0 2 5 8 10 11 10 8 8 6 5 5 5 4 3 2 2 5 8 11 11 9 8 8 9 10 10 8 7
0 0 0 0 0 0 0 1 1 1 1 1 1 0 1 1 3 5 7 9 10 9 9 9 9 9 8 8 7 6 5 3 4 6 8 9 10 9 8 8 9 10 9 7
0 0 0 0 0 0 0 1 2 2 2 2 2 2 2 4 4 4 5 8 9 9 9 9 10 12 11 11 11 10 8 6 5 5 7 8 9 9 9 8 8 9 8 7
0 0 0 0 0 0 0 1 2 4 4 3 4 4 4 5 5 4 5 7 9 9 8 9 9 11 12 13 13 12 11 10 9 9 9 9 9 11 12 10 8 7 7 7
0 0 0 0 1 1 1 2 2 3 3 4 5 4 5 6 7 7 6 8 10 10 8 10 11 13 14 14 13 13 13 12 12 13 13 12 13 15 16 13 9 7 6 6
0 0 0 1 1 1 1 2 2 2 2 3 5 6 6 9 11 11 9 10 12 12 12 15 17 20 20 18 15 14 14 14 14 14 14 14 16 18 20 19 14 9 7 7
0 0 1 1 1 1 3 4 4 3 3 4 7 10 9 10 14 14 11 12 14 16 19 24 28 29 28 24 20 18 18 18 17 17 16 16 21 25 26 24 20 15 12 12
0 0 1 3 3 3 5 5 5 5 4 6 9 11 11 12 15 14 11 11 13 18 24 31 35 36 34 30 25 22 21 21 20 21 19 21 28 33 32 28 25 23 21 19
1 1 2 3 4 4 4 3 3 3 4 6 9 11 12 13 15 14 10 9 12 17 24 30 35 37 36 34 31 27 25 24 24 25 25 26 32 35 32 28 24 23 22 19
1 1 1 1 2 2 1 1 1 1 2 4 6 9 11 13 15 15 13 13 15 18 23 29 33 34 34 34 34 32 30 30 31 29 28 30 32 31 26 21 18 18 18 16
1 0 0 0 1 1 0 0 0 0 1 2 3 4 8 11 14 16 17 18 19 21 25 30 33 34 35 36 37 35 34 34 34 31 30 32 31 25 17 12 11 12 11 11
0 0 0 0 1 1 0 0 0 0 1 1 1 2 5 8 12 16 18 19 20 23 27 30 32 34 38 41 42 39 36 34 33 31 30 30 28 21 12 5 4 5 4 4
0 0 0 0 1 1 0 0 0 0 1 1 1 2 3 5 8 12 15 16 18 21 24 27 29 32 36 40 41 39 36 33 31 31 30 26 23 20 13 4 1 0 0 0
0 0 0 0 0 0 0 0 0 0 1 1 0 1 2 3 4 8 10 13 16 18 20 23 25 27 30 32 33 32 30 28 27 28 26 22 18 17 14 8 4 1 0 0
0 0 0 0 0 0 0 0 0 0 0 0 0 1 2 2 3 5 6 9 13 14 14 16 20 22 24 26 26 27 25 21 21 23 22 19 16 13 11 9 7 4 2 1
0 0 0 1 1 0 0 0 0 0 0 0 1 2 2 1 1 3 3 6 9 10 10 12 15 18 19 20 22 23 20 14 14 20 21 19 16 12 9 8 8 7 4 3
0 0 0 1 1 1 1 0 0 0 0 0 1 2 1 0 0 1 2 4 6 7 7 9 12 14 16 17 17 18 16 11 10 15 20 19 16 13 9 7 7 7 5 4
0 0 0 1 1 2 2 1 0 0 0 0 1 1 0 0 0 1 2 3 4 4 4 5 8 11 13 13 12 12 13 11 8 10 14 13 11 9 8 7 6 5 4 3
0 0 0 0 0 1 2 2 1 0 0 0 1 1 1 0 0 1 2 2 2 2 2 2 4 7 9 8 7 8 10 9 7 6 6 5 3 3 4 4 4 3 3 2
0 0 0 0 0 0 1 1 2 1 1 1 1 2 2 1 1 1 1 1 1 1 1 1 2 4 6 4 4 5 6 5 4 3 2 0 0 0 1 1 1 1 1 1
0 0 0 0 0 0 0 1 2 2 2 1 1 1 1 1 0 0 0 1 1 0 0 0 1 2 2 2 1 2 2 1 1 1 0 0 0 0 0 0 0 0 0 0
0 0 0 0 0 0 0 0 1 2 2 1 0 1 1 1 1 0 1 1 1 0 0 0 0 0 0 0 0 0 0 0 0 0 0 0 0 0 0 0 0 0 0 0
0 0 0 0 0 0 0 0 0 1 1 0 1 2 2 2 2 1 1 1 1 0 0 0 0 0 0 0 0 0 0 0 0 0 0 0 0 0 0 0 0 0 0 0
0 0 0 0 0 0 0 0 0 0 0 0 1 2 2 2 2 1 1 0 0 0 0 0 0 0 0 0 0 0 0 0 0 0 0 0 0 0 0 0 0 0 0 0
0 0 0 0 0 0 0 0 0 0 0 0 1 1 1 1 1 1 0 0 0 0 0 0 0 0 0 0 0 0 0 0 0 0 0 0 0 0 0 0 0 0 0 0
0 0 0 0 0 0 0 0 0 0 0 0 0 0 0 0 0 0 0 0 0 0 0 0 0 0 0 0 0 0 0 0 0 0 0 0 0 0 0 0 0 0 0 0
0 0 0 0 0 0 0 0 0 0 0 0 0 0 0 0 0 0 0 0 0 0 0 0 0 0 0 0 0 0 0 0 0 0 0 0 0 0 0 0 0 0 0 0

GEFSNGP_con_probscp_162.txt.gz
Probability
0 0 0 0 0 0 0 0 0 0 2 6 8 9 12 15 14 11 10 14 26 38 43 40 32 23 20 21 19 17 16 16 17 17 13 13 18 24 26 21 18 20 20 19
0 0 0 0 0 0 0 0 0 1 4 8 11 11 12 14 14 12 11 14 24 37 45 42 34 25 22 24 25 23 20 20 22 22 19 18 20 24 25 22 20 20 19 18
0 0 0 0 0 0 1 2 2 3 7 11 13 13 13 14 16 18 19 19 24 36 46 46 39 31 26 26 28 26 24 25 27 27 24 21 21 24 25 25 24 24 21 17
0 0 0 1 1 0 1 3 5 8 11 14 15 16 16 18 22 26 29 29 30 35 42 44 41 34 28 26 26 25 24 25 27 26 24 22 22 25 30 32 31 29 24 19
0 0 0 1 1 0 1 5 9 13 15 15 15 17 19 23 28 32 34 35 35 33 37 40 41 38 33 27 26 24 22 24 25 25 24 23 25 30 36 37 36 31 26 22
0 0 0 1 2 1 3 9 15 18 18 17 17 18 20 22 26 30 31 32 32 30 34 40 44 44 39 32 29 26 24 24 28 31 31 31 33 38 40 39 34 30 27 27
0 0 0 2 3 6 11 18 23 23 21 21 21 22 21 20 20 23 25 26 29 31 35 45 51 50 43 36 34 33 29 28 33 38 37 38 43 46 44 39 34 31 30 31
1 2 3 5 7 14 23 26 25 23 21 20 21 21 21 19 16 17 19 22 29 34 39 47 55 55 48 43 42 41 36 35 40 43 39 41 49 50 46 41 36 34 34 34
7 8 10 10 12 17 23 22 18 15 13 14 16 16 17 15 12 13 15 20 29 36 40 44 51 54 53 50 50 47 42 40 44 45 42 44 50 49 44 39 35 34 34 33
13 12 13 13 11 12 13 12 9 7 7 9 12 13 12 11 9 12 17 21 28 35 39 40 43 46 49 52 53 51 47 44 45 45 44 45 46 43 37 32 28 28 28 27
13 12 11 10 8 6 7 7 5 4 5 6 8 9 9 8 8 12 18 24 28 34 39 40 40 41 45 49 52 51 49 47 45 43 41 41 39 33 25 20 18 17 17 15
9 9 9 8 5 4 5 4 4 5 5 4 4 4 5 5 6 9 16 23 28 33 38 41 42 44 45 47 49 51 51 49 45 41 37 35 32 24 15 10 7 6 6 5
6 7 7 6 3 2 2 3 3 4 4 3 2 2 3 3 4 7 12 19 25 29 33 38 41 43 45 46 49 52 51 49 44 38 34 31 28 22 14 7 3 1 1 0
5 6 5 3 1 0 1 1 1 1 1 2 2 2 3 4 5 7 11 15 19 23 26 30 33 37 41 44 46 47 46 44 40 35 31 30 28 26 21 15 8 5 3 1
3 4 3 1 0 0 0 0 0 0 0 0 1 1 3 5 7 9 11 14 16 18 19 22 26 29 33 36 37 36 35 34 33 31 29 27 27 27 25 21 15 11 7 4
1 2 1 0 0 0 0 0 0 0 0 0 0 1 4 6 8 9 11 11 13 14 15 16 19 22 25 25 26 26 25 23 23 24 24 23 22 22 21 19 15 11 7 4
1 1 0 0 0 0 0 0 0 0 0 0 1 2 4 6 7 7 7 7 9 10 11 11 12 16 19 19 19 20 19 18 17 18 18 18 17 15 14 11 9 7 4 2
2 1 0 0 0 0 0 0 1 1 0 0 1 2 3 4 4 4 4 4 5 6 7 7 8 10 14 16 16 16 17 16 15 13 13 12 11 8 7 6 5 4 2 1
2 1 0 0 0 0 0 1 2 2 1 0 1 1 2 2 2 2 2 3 3 5 6 6 5 7 11 13 13 13 13 12 11 9 8 7 6 4 3 3 3 3 1 0
1 0 0 0 0 0 0 1 2 3 2 1 0 0 1 1 1 1 1 2 4 5 5 4 3 5 7 9 9 10 10 8 6 5 4 4 4 3 3 3 3 2 1 0
0 0 0 0 0 0 0 1 2 3 2 1 0 0 0 0 0 0 0 2 3 4 3 2 1 3 5 6 6 7 6 4 3 3 3 3 3 3 3 3 3 1 0 0
0 1 1 1 0 0 0 1 2 2 1 0 0 0 0 0 0 0 0 1 2 2 1 1 0 1 3 4 4 4 4 2 1 1 3 3 2 3 3 3 2 1 0 0
1 2 2 1 0 0 0 0 1 1 1 0 0 0 0 0 0 0 0 1 1 0 0 0 0 1 2 3 3 3 3 2 1 1 3 3 3 2 2 2 1 0 0 0
2 2 1 0 0 0 0 0 0 0 0 0 0 0 0 0 0 0 0 0 0 0 0 0 0 1 3 3 3 3 3 3 2 2 2 2 2 1 1 1 0 0 0 0
1 1 0 0 0 0 0 0 0 0 0 0 0 0 0 0 0 0 0 0 0 0 0 0 0 1 2 2 2 2 2 2 2 1 1 1 1 0 0 0 0 0 0 0
0 0 0 0 0 0 0 0 0 0 0 0 0 0 0 0 0 0 0 0 0 0 0 0 0 1 1 1 1 1 1 1 1 0 0 0 0 0 0 0 0 0 0 0
0 0 0 0 0 0 0 0 0 0 0 0 0 0 0 0 0 0 0 0 0 0 0 0 0 0 0 0 0 0 0 0 0 0 0 0 0 0 0 0 0 0 0 0

GEFSNGP_con_probscp_168.txt.gz
Probability
0 0 0 0 0 1 1 0 0 0 1 1 3 4 5 6 7 9 11 11 8 8 11 14 13 14 16 15 13 13 11 9 8 10 11 11 9 7 5 3 3 3 4 5
0 0 0 0 1 2 2 1 0 0 2 2 3 4 6 8 9 10 10 10 8 8 12 14 13 13 13 12 11 11 10 8 8 9 10 10 9 6 4 2 2 2 3 4
1 1 0 0 1 3 3 2 1 1 3 5 5 5 7 10 11 11 11 9 7 7 10 13 14 13 11 11 10 8 8 8 9 8 8 8 8 5 2 1 1 1 2 2
0 0 0 1 2 3 4 4 6 6 6 7 9 9 10 11 11 12 13 12 7 6 9 12 13 13 12 10 8 7 7 8 8 8 8 8 7 5 3 1 1 1 1 1
0 0 0 2 3 4 4 7 11 11 10 10 12 14 13 10 9 12 14 13 9 8 10 11 11 13 12 8 6 5 6 7 7 7 7 7 6 6 5 4 3 2 2 3
0 0 0 1 2 2 3 7 11 11 9 9 12 13 11 8 8 11 13 12 11 12 12 11 9 10 10 7 4 4 5 6 7 7 8 8 7 7 6 6 4 4 5 5
0 0 0 1 1 1 2 5 8 8 6 6 8 8 8 8 9 11 12 11 11 13 14 12 9 8 8 6 5 4 4 5 6 8 8 8 8 7 7 7 6 6 6 6
0 0 0 1 2 1 1 4 5 5 4 4 7 9 9 9 8 8 9 10 11 13 13 13 12 9 7 6 5 5 4 3 4 5 6 7 8 8 9 9 9 8 7 7
0 1 1 1 2 2 3 4 4 3 3 4 7 9 9 7 6 6 6 8 9 10 10 12 13 11 9 8 8 7 5 4 4 4 5 6 8 9 10 11 11 9 8 7
1 1 2 2 2 3 4 5 4 3 4 3 4 5 5 5 5 6 6 6 7 8 8 8 10 11 12 11 11 10 8 7 6 6 7 7 8 8 8 9 9 8 7 5
0 1 1 1 2 3 4 4 3 3 3 2 1 1 1 2 4 5 6 6 6 5 5 4 6 10 12 13 14 13 11 9 8 8 7 6 5 5 5 5 5 5 4 4
0 0 0 1 2 2 2 2 1 2 1 1 0 0 0 1 2 4 5 6 6 5 4 4 5 6 9 12 14 15 13 10 7 7 6 4 3 4 4 4 2 2 2 2
0 0 0 1 1 1 1 0 0 0 0 0 0 0 0 1 2 3 4 5 5 5 5 5 4 5 8 10 12 12 11 8 5 5 5 4 3 5 5 3 1 0 1 1
0 0 0 0 0 0 0 0 0 0 0 0 0 0 0 1 2 3 3 4 4 4 4 4 5 6 9 10 8 7 7 5 4 4 5 4 4 5 5 3 1 0 0 0
0 0 0 0 0 0 0 0 0 0 0 0 0 0 0 1 2 3 3 3 3 3 3 4 6 7 9 9 7 6 6 4 3 4 5 6 5 5 4 2 1 0 0 0
0 0 0 0 0 0 0 0 0 0 0 0 0 0 0 0 1 1 2 2 2 2 3 4 5 7 8 8 7 6 5 4 3 4 5 5 4 4 3 2 1 1 0 0
0 0 0 0 0 0 0 0 0 0 0 0 0 0 0 0 0 0 1 1 1 2 3 3 3 5 6 7 7 5 3 3 3 4 5 4 3 3 3 3 3 2 1 0
0 0 0 0 0 0 0 0 0 0 0 0 0 0 0 0 0 0 0 0 1 1 2 2 1 1 2 4 5 3 2 3 3 4 4 3 3 3 3 3 3 2 1 0
0 0 0 0 0 0 0 0 0 0 0 0 0 0 0 0 0 0 0 0 0 1 2 2 1 0 0 1 1 1 1 3 3 4 3 3 3 3 3 2 1 1 0 0
0 0 0 0 0 0 0 0 0 0 0 0 0 0 0 0 0 0 0 0 0 0 1 1 0 0 0 0 0 0 1 2 3 3 3 3 3 3 3 1 0 0 0 0
0 0 0 0 0 0 0 0 0 0 0 0 0 0 0 0 0 0 0 0 0 0 0 0 0 0 0 0 0 0 0 1 3 3 3 3 3 3 2 1 0 0 0 0
0 0 0 0 0 0 0 0 0 0 0 0 0 0 0 0 0 0 0 0 0 0 0 0 0 0 0 0 0 0 0 1 2 3 3 3 3 3 2 1 0 0 0 0
0 0 0 0 0 0 0 0 0 0 0 0 0 0 0 0 0 0 0 0 0 0 0 0 0 0 0 0 0 0 0 1 2 3 2 2 2 2 1 0 0 0 0 0
0 0 0 0 0 0 0 0 0 0 0 0 0 0 0 0 0 0 0 0 0 0 0 0 0 0 0 0 0 0 0 1 2 1 1 1 1 1 0 0 0 0 0 0
0 0 0 0 0 0 0 0 0 0 0 0 0 0 0 0 0 0 0 0 0 0 0 0 0 0 0 0 0 0 0 1 1 0 0 0 0 0 0 0 0 0 0 0
0 0 0 0 0 0 0 0 0 0 0 0 0 0 0 0 0 0 0 0 0 0 0 0 0 0 0 0 0 0 0 0 0 0 0 0 0 0 0 0 0 0 0 0
0 0 0 0 0 0 0 0 0 0 0 0 0 0 0 0 0 0 0 0 0 0 0 0 0 0 0 0 0 0 0 0 0 0 0 0 0 0 0 0 0 0 0 0